Sigfox identifier Datetime Temperature Humidity SNR
003B5759 2019-02-20 13:49:18 20.7 24 24.9
003B5759 2019-02-20 13:18:51 20.7 24 25
003B5759 2019-02-20 12:48:20 20.7 25 24.4
003B5759 2019-02-20 12:17:51 20.7 25 24.4
003B5759 2019-02-20 11:47:22 20.7 26 23.7
003B5759 2019-02-20 11:16:53 20.7 26 22.9
003B5759 2019-02-20 10:46:26 20.7 26 22.9
003B5759 2019-02-20 10:15:55 20.7 27 22
003B5759 2019-02-20 09:45:26 20.6 27 22
003B5759 2019-02-20 09:14:58 20.6 27 20.8
003B5759 2019-02-20 08:44:30 20.6 27 19.1
003B5759 2019-02-20 08:14:02 20.6 27 16.4
003B5759 2019-02-20 07:43:33 20.6 27 16.4
003B5759 2019-02-20 07:13:05 20.6 27 16.5
003B5759 2019-02-20 06:42:38 20.6 27 16.4
003B5759 2019-02-20 06:12:10 20.6 27 16.1
003B5759 2019-02-20 05:41:41 20.7 27 16.3
003B5759 2019-02-20 05:11:11 20.7 27 16.3
003B5759 2019-02-20 04:40:43 20.7 27 16.2
003B5759 2019-02-20 04:10:15 20.7 27 15.9
003B5759 2019-02-20 03:39:47 20.7 27 15.7
003B5759 2019-02-20 03:09:18 20.7 27 15.4
003B5759 2019-02-20 02:38:49 20.7 27 15.6
003B5759 2019-02-20 02:08:21 20.7 27 15.5
003B5759 2019-02-20 01:37:53 20.7 27 15.3
003B5759 2019-02-20 01:07:24 20.7 27 15.2
003B5759 2019-02-20 00:36:56 20.7 27 15.1
003B5759 2019-02-20 00:06:27 20.7 27 15.5
003B5759 2019-02-19 23:36:00 21 26 15.5
003B5759 2019-02-19 23:34:48 20.7 27 15.6
003B5759 2019-02-19 23:04:21 20.7 27 15.6
003B5759 2019-02-19 22:33:52 20.7 27 18.7
003B5759 2019-02-19 22:03:23 20.8 27 18.7
003B5759 2019-02-19 21:32:54 20.8 27 18.6
003B5759 2019-02-19 21:02:25 20.8 27 18.4
003B5759 2019-02-19 20:31:57 20.8 27 20.4
003B5759 2019-02-19 20:01:28 20.8 27 20.3
003B5759 2019-02-19 19:31:01 20.9 27 20.3
003B5759 2019-02-19 19:00:30 20.9 27 20.2
003B5759 2019-02-19 18:30:01 20.9 27 20.2
003B5759 2019-02-19 17:59:37 21 27 20.2
003B5759 2019-02-19 17:29:03 21 27 20.1
003B5759 2019-02-19 16:58:33 21 27 20.1
003B5759 2019-02-19 16:28:04 21 27 20.1
003B5759 2019-02-19 15:57:35 20.9 27 20.1
003B5759 2019-02-19 15:27:08 21 27 20.2
003B5759 2019-02-19 14:56:39 21 27 20.2
003B5759 2019-02-19 14:26:14 21 27 20
003B5759 2019-02-19 13:55:47 21 27 20
003B5759 2019-02-19 13:25:15 20.9 26 20
003B5759 2019-02-19 12:54:47 20.9 26 20
003B5759 2019-02-19 12:24:18 20.9 26 20
003B5759 2019-02-19 11:53:52 20.9 26 19.9
003B5759 2019-02-19 11:23:22 20.9 26 19.8
003B5759 2019-02-19 10:52:53 20.9 26 19.8
003B5759 2019-02-19 10:22:24 20.8 26 19.8
003B5759 2019-02-19 09:21:23 20.7 25 17.5
003B5759 2019-02-19 08:50:58 20.7 25 17.4
003B5759 2019-02-19 08:20:24 20.7 25 17.4
003B5759 2019-02-19 07:49:57 20.7 24 17.4
003B5759 2019-02-19 07:19:28 20.7 24 12.1
003B5759 2019-02-19 06:49:01 20.7 24 11.8
003B5759 2019-02-19 06:18:34 20.7 24 12
003B5759 2019-02-19 05:48:08 20.7 24 11.9
003B5759 2019-02-19 05:17:36 20.7 24 17.3
003B5759 2019-02-19 04:47:07 20.7 24 17.3
003B5759 2019-02-19 04:16:40 20.7 24 17.6
003B5759 2019-02-19 03:46:13 20.7 24 17.7
003B5759 2019-02-19 03:15:45 20.7 24 17.8
003B5759 2019-02-19 02:45:13 20.7 23 18.1
003B5759 2019-02-19 02:14:46 20.7 23 18.2
003B5759 2019-02-19 01:44:17 20.7 23 18.4
003B5759 2019-02-19 01:13:48 20.7 23 18.4
003B5759 2019-02-19 00:12:50 20.7 23 18.5
003B5759 2019-02-18 23:42:21 20.7 23 18.5
003B5759 2019-02-18 23:11:52 20.7 23 18.5
003B5759 2019-02-18 22:41:22 20.9 22 18.7
003B5759 2019-02-18 22:40:12 20.7 22 18.9
003B5759 2019-02-18 21:39:14 20.7 22 19.2
003B5759 2019-02-18 21:08:46 20.7 22 19.4
003B5759 2019-02-18 20:38:18 20.7 22 19.6
003B5759 2019-02-18 20:07:49 20.7 22 19.8
003B5759 2019-02-18 19:37:20 20.8 22 20
003B5759 2019-02-18 18:36:25 20.8 21 20.2
003B5759 2019-02-18 17:35:21 20.9 21 20.5
003B5759 2019-02-18 17:04:53 20.9 21 20.5
003B5759 2019-02-18 16:34:23 20.9 21 20.6
003B5759 2019-02-18 16:03:51 20.9 21 20.8
003B5759 2019-02-18 15:33:24 21 21 21
003B5759 2019-02-18 15:02:53 21 20 19.7
003B5759 2019-02-18 14:01:54 21 20 19.9
003B5759 2019-02-18 13:31:27 21.1 20 20
003B5759 2019-02-18 13:00:58 21.2 19 20.1
003B5759 2019-02-18 12:30:31 21.3 19 20.1
003B5759 2019-02-18 12:00:03 21.3 19 20.1
003B5759 2019-02-18 11:29:37 21.3 19 20.3
003B5759 2019-02-18 10:59:09 21.2 19 20.4
003B5759 2019-02-18 10:28:42 21.2 19 20.7
003B5759 2019-02-18 09:58:13 21.1 19 21.9
003B5759 2019-02-18 09:27:46 21.1 19 22.1
003B5759 2019-02-18 08:57:18 21.1 19 22.2
003B5759 2019-02-18 08:26:49 21 18 22.2
003B5759 2019-02-18 07:56:20 21 18 22.2
003B5759 2019-02-18 07:25:52 20.9 18 22.3
003B5759 2019-02-18 06:55:24 20.9 18 22.3
003B5759 2019-02-18 06:24:56 21 18 22.4
003B5759 2019-02-18 05:54:29 20.9 18 22.4
003B5759 2019-02-18 05:24:01 21 18 22.4
003B5759 2019-02-18 04:53:33 21 18 22.6
003B5759 2019-02-18 04:23:05 20.9 18 22.5
003B5759 2019-02-18 03:52:37 20.9 18 22.7
003B5759 2019-02-18 03:22:08 20.9 19 22.7
003B5759 2019-02-18 02:51:39 21 19 22.7
003B5759 2019-02-18 02:21:10 21 19 22.7
003B5759 2019-02-18 01:50:39 21 19 22.7
003B5759 2019-02-18 01:20:09 21 19 22.6
003B5759 2019-02-18 00:49:38 21 19 22.6
003B5759 2019-02-18 00:19:06 21 19 22.7
003B5759 2019-02-17 23:48:34 21 19 22.8
003B5759 2019-02-17 23:18:04 21 19 22.8
003B5759 2019-02-17 22:47:32 21 19 22.8
003B5759 2019-02-17 22:17:01 21 19 22.8
003B5759 2019-02-17 21:46:30 21.3 19 22.8
003B5759 2019-02-17 21:45:19 21 19 22
003B5759 2019-02-17 21:14:48 21 19 21.9
003B5759 2019-02-17 20:44:17 21 19 21.9
003B5759 2019-02-17 20:13:45 21 19 21.9
003B5759 2019-02-17 19:43:15 21 20 21.9
003B5759 2019-02-17 19:12:44 21.1 20 22
003B5759 2019-02-17 18:42:12 21.1 20 22
003B5759 2019-02-17 18:11:41 21 20 21.9
003B5759 2019-02-17 17:41:10 21.1 20 22
003B5759 2019-02-17 17:10:39 21.1 20 22
003B5759 2019-02-17 16:40:09 21.1 20 22
003B5759 2019-02-17 16:09:38 21.1 20 22.2
003B5759 2019-02-17 15:39:08 21.1 20 22.1
003B5759 2019-02-17 15:08:37 21.1 20 22.2
003B5759 2019-02-17 14:38:08 21.1 20 22.3
003B5759 2019-02-17 14:07:37 21.1 20 22.2
003B5759 2019-02-17 13:37:08 21.2 20 23
003B5759 2019-02-17 13:06:38 21.2 21 23.1
003B5759 2019-02-17 12:36:08 21.1 21 23.1
003B5759 2019-02-17 12:05:39 21.1 21 23.1
003B5759 2019-02-17 11:35:10 21.1 21 23.1
003B5759 2019-02-17 11:04:42 21.1 21 23.1
003B5759 2019-02-17 10:34:12 21.1 21 23.1
003B5759 2019-02-17 10:03:43 21.1 21 23.1
003B5759 2019-02-17 09:33:14 21.1 21 23.1
003B5759 2019-02-17 09:02:44 21 21 23.1
003B5759 2019-02-17 08:32:13 21.1 21 23.1
003B5759 2019-02-17 08:01:44 21.1 21 23.2
003B5759 2019-02-17 07:31:14 21.1 22 23.3
003B5759 2019-02-17 07:00:43 21.1 22 23.3
003B5759 2019-02-17 06:30:11 21.1 22 23.2
003B5759 2019-02-17 05:59:41 21.1 22 23.2
003B5759 2019-02-17 05:29:11 21.1 22 23.2
003B5759 2019-02-17 04:58:42 21.1 22 23.1
003B5759 2019-02-17 04:28:12 21.1 23 23.2
003B5759 2019-02-17 03:57:41 21.1 23 23
003B5759 2019-02-17 03:27:09 21.1 23 22.9
003B5759 2019-02-17 02:56:39 21.1 23 23
003B5759 2019-02-17 02:26:08 21.1 23 23
003B5759 2019-02-17 01:55:39 21.1 24 22.9
003B5759 2019-02-17 01:25:06 21.1 24 23
003B5759 2019-02-17 00:54:34 21.1 24 22.2
003B5759 2019-02-17 00:24:02 21.1 24 22.2
003B5759 2019-02-16 23:53:32 21.2 24 22.3
003B5759 2019-02-16 23:23:01 21.1 24 22.1
003B5759 2019-02-16 22:52:29 21.2 24 22.1
003B5759 2019-02-16 22:21:57 21.2 24 22.3
003B5759 2019-02-16 21:51:25 21.2 24 22.3
003B5759 2019-02-16 21:20:53 21.2 24 22.2
003B5759 2019-02-16 20:50:21 21.4 24 22.2
003B5759 2019-02-16 20:49:10 21.2 25 22.2
003B5759 2019-02-16 20:18:38 21.2 25 22.2
003B5759 2019-02-16 19:48:07 21.2 25 22.3
003B5759 2019-02-16 19:17:35 21.2 25 22.3
003B5759 2019-02-16 18:47:04 21.2 25 22.2
003B5759 2019-02-16 18:16:32 21.2 25 22.1
003B5759 2019-02-16 17:45:59 21.2 25 22.2
003B5759 2019-02-16 17:15:27 21.3 25 22.1
003B5759 2019-02-16 16:44:54 21.3 25 22.1
003B5759 2019-02-16 16:14:23 21.3 25 22.1
003B5759 2019-02-16 15:43:53 21.4 25 22.1
003B5759 2019-02-16 15:13:22 21.3 25 22.1
003B5759 2019-02-16 14:42:52 21.3 25 22
003B5759 2019-02-16 14:12:21 21.3 25 22
003B5759 2019-02-16 13:41:50 21.3 25 21.9
003B5759 2019-02-16 13:11:19 21.3 25 22.8
003B5759 2019-02-16 12:40:48 21.3 25 22.7
003B5759 2019-02-16 12:10:17 21.2 25 22.7
003B5759 2019-02-16 11:39:46 21.2 25 22.6
003B5759 2019-02-16 11:09:15 21.2 25 22.6
003B5759 2019-02-16 10:38:43 21.2 25 22.6
003B5759 2019-02-16 10:08:11 21.2 25 22.5
003B5759 2019-02-16 09:37:40 21.2 25 22.6
003B5759 2019-02-16 09:07:08 21.2 25 22.7
003B5759 2019-02-16 08:36:37 21.2 25 22.6
003B5759 2019-02-16 08:06:05 21.2 25 22.6
003B5759 2019-02-16 07:35:35 21.2 25 23.3
003B5759 2019-02-16 07:05:04 21.2 25 23.3
003B5759 2019-02-16 06:34:33 21.2 25 23.3
003B5759 2019-02-16 06:04:01 21.2 25 23.3
003B5759 2019-02-16 05:33:29 21.2 25 23.3
003B5759 2019-02-16 05:02:58 21.2 25 23.3
003B5759 2019-02-16 04:32:27 21.2 25 23.3
003B5759 2019-02-16 04:01:56 21.2 25 23.2
003B5759 2019-02-16 03:31:24 21.2 25 23.2
003B5759 2019-02-16 03:00:54 21.2 25 23.3
003B5759 2019-02-16 02:30:24 21.2 25 23.2
003B5759 2019-02-16 01:59:53 21.3 25 23.2
003B5759 2019-02-16 01:29:22 21.2 25 23.1
003B5759 2019-02-16 00:58:52 21.3 25 23.2
003B5759 2019-02-16 00:28:22 21.3 25 22.3
003B5759 2019-02-15 23:57:52 21.3 25 22.3
003B5759 2019-02-15 23:27:21 21.4 25 22.2
003B5759 2019-02-15 22:56:49 21.3 25 22.2
003B5759 2019-02-15 22:26:18 21.4 25 22.2
003B5759 2019-02-15 21:55:49 21.4 25 22.2
003B5759 2019-02-15 21:25:17 21.5 25 22.2
003B5759 2019-02-15 20:54:46 21.5 25 22
003B5759 2019-02-15 20:24:16 21.5 25 22
003B5759 2019-02-15 19:53:44 21.8 24 22
003B5759 2019-02-15 19:52:33 21.5 25 22
003B5759 2019-02-15 19:22:01 21.6 25 21
003B5759 2019-02-15 18:51:29 21.7 25 20.9
003B5759 2019-02-15 18:20:57 21.7 25 20.9
003B5759 2019-02-15 17:50:27 21.7 24 20.9
003B5759 2019-02-15 17:19:57 21.7 24 21
003B5759 2019-02-15 16:49:26 21.7 24 21.1
003B5759 2019-02-15 16:18:56 21.6 24 21.2
003B5759 2019-02-15 15:48:25 21.7 24 21.2
003B5759 2019-02-15 15:17:54 21.7 24 21.2
003B5759 2019-02-15 14:47:22 21.6 24 21.1
003B5759 2019-02-15 14:16:53 21.6 24 21.1
003B5759 2019-02-15 13:46:22 21.6 24 21.2
003B5759 2019-02-15 13:15:51 21.6 24 21.3
003B5759 2019-02-15 12:45:19 21.5 24 21.2
003B5759 2019-02-15 12:14:48 21.5 24 21.3
003B5759 2019-02-15 11:44:17 21.5 24 21.4
003B5759 2019-02-15 11:13:46 21.5 24 21.5
003B5759 2019-02-15 10:43:16 21.5 24 21.5
003B5759 2019-02-15 10:12:45 21.4 25 21.5
003B5759 2019-02-15 09:42:14 21.4 25 21.5
003B5759 2019-02-15 09:11:42 21.4 25 21.4
003B5759 2019-02-15 08:41:13 21.3 25 21.5
003B5759 2019-02-15 08:10:42 21.3 25 21.5
003B5759 2019-02-15 07:40:11 21.3 25 21.5
003B5759 2019-02-15 07:09:41 21.3 25 21.5
003B5759 2019-02-15 06:39:10 21.3 25 21.7
003B5759 2019-02-15 06:08:39 21.3 25 21.6
003B5759 2019-02-15 05:38:08 21.3 25 21.7
003B5759 2019-02-15 05:07:37 21.3 25 21.7
003B5759 2019-02-15 04:37:06 21.3 25 22.5
003B5759 2019-02-15 04:06:35 21.3 25 22.4
003B5759 2019-02-15 03:36:04 21.3 25 22.3
003B5759 2019-02-15 03:05:32 21.3 25 22.2
003B5759 2019-02-15 02:35:02 21.3 25 22
003B5759 2019-02-15 02:04:31 21.4 25 21.9
003B5759 2019-02-15 01:34:01 21.4 25 21.8
003B5759 2019-02-15 01:03:31 21.4 25 21.8
003B5759 2019-02-15 00:33:01 21.4 25 21.6
003B5759 2019-02-15 00:02:32 21.4 25 21.4
003B5759 2019-02-14 23:32:01 21.4 25 21.4
003B5759 2019-02-14 23:01:31 21.4 25 21.2
003B5759 2019-02-14 22:31:01 21.4 25 21
003B5759 2019-02-14 22:00:30 21.5 25 20.9
003B5759 2019-02-14 21:30:01 21.5 24 20.8
003B5759 2019-02-14 20:59:32 21.5 24 20.8
003B5759 2019-02-14 20:29:05 21.6 24 20.9
003B5759 2019-02-14 19:58:36 21.6 24 21
003B5759 2019-02-14 19:28:08 21.7 24 21.1
003B5759 2019-02-14 18:57:40 21.9 24 21.1
003B5759 2019-02-14 18:56:29 21.7 24 21
003B5759 2019-02-14 18:26:01 21.7 24 20.8
003B5759 2019-02-14 17:55:34 21.8 24 20.8
003B5759 2019-02-14 17:25:06 21.8 24 20.7
003B5759 2019-02-14 16:54:37 21.8 24 20.7
003B5759 2019-02-14 16:24:10 21.8 24 19
003B5759 2019-02-14 15:53:41 21.7 24 19.4
003B5759 2019-02-14 15:23:13 21.6 24 19.6
003B5759 2019-02-14 14:52:44 21.6 24 19.9
003B5759 2019-02-14 14:22:17 21.4 24 20.1
003B5759 2019-02-14 13:51:47 21.3 24 20.3
003B5759 2019-02-14 13:21:18 21.3 24 20.5
003B5759 2019-02-14 12:50:50 21.2 24 20.5
003B5759 2019-02-14 12:20:21 21.1 24 20.6
003B5759 2019-02-14 11:49:54 21.1 24 20.8
003B5759 2019-02-14 11:19:27 21 24 21
003B5759 2019-02-14 10:48:57 20.8 24 21.1
003B5759 2019-02-14 10:18:31 20.8 24 21.3
003B5759 2019-02-14 09:48:00 20.7 24 21.4
003B5759 2019-02-14 09:17:33 20.7 24 21.6
003B5759 2019-02-14 08:47:06 20.7 24 21.6
003B5759 2019-02-14 08:16:34 20.7 24 21.7
003B5759 2019-02-14 07:46:05 20.7 25 21.6
003B5759 2019-02-14 07:15:36 20.7 25 21.6
003B5759 2019-02-14 06:45:08 20.7 25 21.4
003B5759 2019-02-14 06:14:39 20.7 25 21.5
003B5759 2019-02-14 05:44:12 20.7 25 21.5
003B5759 2019-02-14 05:13:43 20.7 25 21.5
003B5759 2019-02-14 04:43:15 20.8 25 21.5
003B5759 2019-02-14 04:12:46 20.7 25 21.5
003B5759 2019-02-14 03:42:18 20.7 25 21.5
003B5759 2019-02-14 03:11:49 20.8 25 21.3
003B5759 2019-02-14 02:41:21 20.8 25 21.2
003B5759 2019-02-14 02:10:53 20.8 25 21.1
003B5759 2019-02-14 01:40:24 20.8 25 20.9
003B5759 2019-02-14 01:09:56 20.8 25 20.8
003B5759 2019-02-14 00:39:27 20.8 24 20.7
003B5759 2019-02-14 00:08:59 20.8 24 20.8
003B5759 2019-02-13 23:38:27 20.9 24 20.9
003B5759 2019-02-13 23:07:58 20.9 24 20.8
003B5759 2019-02-13 22:37:30 20.9 24 20.6
003B5759 2019-02-13 22:07:01 20.9 25 20.5
003B5759 2019-02-13 21:36:33 21 25 20.2
003B5759 2019-02-13 21:06:03 21.1 25 20.2
003B5759 2019-02-13 20:35:34 21.1 25 20
003B5759 2019-02-13 20:05:06 21.2 25 19.9
003B5759 2019-02-13 19:34:38 21.2 25 19.6
003B5759 2019-02-13 19:04:09 21.3 25 19.7
003B5759 2019-02-13 18:33:40 21.3 25 19.5
003B5759 2019-02-13 18:03:10 21.5 25 19.7
003B5759 2019-02-13 18:01:59 21.3 26 19.6
003B5759 2019-02-13 17:31:30 21.2 25 19.6
003B5759 2019-02-13 17:01:03 21.2 26 19.6
003B5759 2019-02-13 16:30:33 21.2 25 19.5
003B5759 2019-02-13 16:00:04 21.1 25 19.5
003B5759 2019-02-13 15:29:35 21.1 24 19.5
003B5759 2019-02-13 14:59:05 21 24 19.6
003B5759 2019-02-13 14:28:35 21 24 19.7
003B5759 2019-02-13 13:58:04 21 24 20
003B5759 2019-02-13 13:27:34 21 24 20.2
003B5759 2019-02-13 12:57:04 21 24 20.3
003B5759 2019-02-13 12:26:34 20.9 24 20.2
003B5759 2019-02-13 11:56:05 20.9 24 20
003B5759 2019-02-13 11:25:35 20.8 23 19.8
003B5759 2019-02-13 10:55:05 20.8 23 20.2
003B5759 2019-02-13 10:24:36 20.7 22 20.2
003B5759 2019-02-13 09:54:06 20.7 22 20.3
003B5759 2019-02-13 09:23:37 20.7 21 20.5
003B5759 2019-02-13 08:53:10 20.7 21 20.4
003B5759 2019-02-13 08:22:38 20.6 20 20.3
003B5759 2019-02-13 07:52:09 20.6 20 20.3
003B5759 2019-02-13 07:21:43 20.6 19 20.3
003B5759 2019-02-13 06:51:12 20.7 19 20.5
003B5759 2019-02-13 06:20:43 20.7 20 20.4
003B5759 2019-02-13 05:50:16 20.7 20 20.2
003B5759 2019-02-13 05:19:46 20.7 20 20
003B5759 2019-02-13 04:49:18 20.7 20 19.8
003B5759 2019-02-13 04:18:49 20.7 20 19.6
003B5759 2019-02-13 03:48:21 20.7 19 19.4
003B5759 2019-02-13 03:17:51 20.7 19 19.2
003B5759 2019-02-13 02:47:23 20.7 19 19.2
003B5759 2019-02-13 02:16:54 20.7 19 19
003B5759 2019-02-13 01:46:25 20.7 19 18.9
003B5759 2019-02-13 01:15:56 20.8 19 18.5
003B5759 2019-02-13 00:45:27 20.8 20 18.1
003B5759 2019-02-13 00:14:57 20.8 20 18.1
003B5759 2019-02-12 23:44:27 20.9 20 18
003B5759 2019-02-12 23:13:58 20.9 20 17.9
003B5759 2019-02-12 22:43:28 21 20 17.8
003B5759 2019-02-12 22:12:58 21 20 17
003B5759 2019-02-12 21:42:27 21.1 21 17
003B5759 2019-02-12 21:11:59 21.2 21 17.1
003B5759 2019-02-12 20:41:30 21.3 21 16.6
003B5759 2019-02-12 20:11:01 21.4 21 16.6
003B5759 2019-02-12 19:40:32 21.4 21 16.5
003B5759 2019-02-12 19:10:03 21.5 20 16.3
003B5759 2019-02-12 18:39:35 21.5 20 16.4
003B5759 2019-02-12 18:09:06 21.6 20 15.6
003B5759 2019-02-12 17:38:34 21.7 20 16.2
003B5759 2019-02-12 17:08:05 22.1 20 16.5
003B5759 2019-02-12 17:06:56 21.9 20 16.4
003B5759 2019-02-12 16:36:24 22 20 16.5
003B5759 2019-02-12 16:05:55 22 20 16.5
003B5759 2019-02-12 15:35:26 22 20 16.9
003B5759 2019-02-12 15:04:56 21.9 20 17
003B5759 2019-02-12 14:34:27 21.7 21 16.9
003B5759 2019-02-12 14:03:59 21.2 21 16.9
003B5759 2019-02-12 13:33:30 21.2 21 17.2
003B5759 2019-02-12 13:03:03 21.2 21 17.2
003B5759 2019-02-12 12:32:33 21.1 22 17.7
003B5759 2019-02-12 12:02:03 21.1 22 17.4
003B5759 2019-02-12 11:31:33 21.1 22 17.6
003B5759 2019-02-12 11:01:03 21 23 17.7
003B5759 2019-02-12 10:30:33 20.9 23 17.6
003B5759 2019-02-12 10:00:02 20.9 23 17.7
003B5759 2019-02-12 09:29:32 20.8 24 17.6
003B5759 2019-02-12 08:59:03 20.8 24 17.5
003B5759 2019-02-12 08:28:34 20.7 25 17.7
003B5759 2019-02-12 07:58:06 20.7 25 17.8
003B5759 2019-02-12 07:27:35 20.7 26 17.7
003B5759 2019-02-12 06:57:04 20.7 26 17.6
003B5759 2019-02-12 06:26:33 20.7 26 17.6
003B5759 2019-02-12 05:56:03 20.8 26 17.9
003B5759 2019-02-12 05:25:34 20.8 26 17.6
003B5759 2019-02-12 04:55:05 20.8 26 17.7
003B5759 2019-02-12 04:24:36 20.8 27 17.8
003B5759 2019-02-12 03:54:08 20.8 27 17.9
003B5759 2019-02-12 03:23:39 20.8 27 18.1
003B5759 2019-02-12 02:53:10 20.8 27 17.8
003B5759 2019-02-12 02:22:43 20.8 27 18
003B5759 2019-02-12 01:52:13 20.9 27 17.9
003B5759 2019-02-12 01:21:44 20.9 27 18.1
003B5759 2019-02-12 00:51:16 20.9 27 17.7
003B5759 2019-02-12 00:20:47 20.9 27 17.9
003B5759 2019-02-11 23:50:18 21 27 17.3
003B5759 2019-02-11 23:19:49 21 27 17.5
003B5759 2019-02-11 22:49:18 21.1 27 17.3
003B5759 2019-02-11 22:18:50 21.1 27 17.5
003B5759 2019-02-11 21:48:20 21.2 27 17.8
003B5759 2019-02-11 21:17:51 21.3 27 18
003B5759 2019-02-11 20:47:22 21.3 27 18.3
003B5759 2019-02-11 20:16:53 21.4 27 18.2
003B5759 2019-02-11 19:46:23 21.5 27 18.2
003B5759 2019-02-11 19:15:54 21.6 27 18.4
003B5759 2019-02-11 18:45:24 21.7 27 18.9
003B5759 2019-02-11 18:14:54 21.8 27 19.7
003B5759 2019-02-11 17:44:23 21.9 28 20
003B5759 2019-02-11 17:13:52 22 28 19.8
003B5759 2019-02-11 16:43:20 22 28 21.4
003B5759 2019-02-11 16:12:48 22.1 29 0